sat.trackr.live / text

‹ back to catalog

STARLINK-4184

NORAD 52852 · 2022-062Y

PAYLOAD ACTIVE UNKNOWN

§ Identity

Operator
Country
US
Launch date
2022-06-17
Launch site
AFETR
Launch vehicle
Mass (kg)
RCS (m²)

Purposes: comms

External: N2YO · Heavens-Above · Gunter

§ Orbital elements

Epoch: 2026-05-25T02:02:54.068064Z

Period
95.44 min
Inclination
53.2132°
Eccentricity
0.0001600
Mean motion
15.08844781 rev/d
Perigee alt
538.6 km
Apogee alt
540.8 km
Semi-major
6,917.9 km
B*
-6.7674e-5
RAAN
41.1668°
Arg perigee
92.5249°
Mean anomaly
267.5926°
Rev number
21,745

§ Raw data

STARLINK-41841 52852U 22062Y   26145.08534801 -.00001365  00000+0 -67674-4 0  99912 52852  53.2132  41.1668 0001600  92.5249 267.5926 15.08844781217456

JSON: /api/v1/satellites/52852 · /tle

For live sub-satellite position, see the globe view (requires WebGL).

§ Visibility from observer

Set your observer location to see the next 7 days of passes ≥ 10°. The values pass through the URL so the page stays shareable.

No JS? Fill the form by hand. The geolocation button needs JavaScript.